Location: Astronomy Club of Akron Observatory
(40.9700°N, 81.5606°W)
Time: 12:04:20
(UTC-04:00)

Cosmos 1441 Rocket - Visible Passes

Search period start: 29 June 2017 00:00
Search period end: 09 July 2017 00:00
Orbit: 499 x 543 km, 81.1° (Epoch: 28 June)

Date Brightness Start Highest point End Pass type
(mag) Time Alt. Az. Time Alt. Az. Time Alt. Az.
29 Jun 5.7 03:07:31 10° NNE 03:10:29 20° ENE 03:13:25 10° ESE visible
29 Jun 4.3 04:43:01 10° NNW 04:46:29 28° W 04:48:56 16° SW visible
30 Jun 5.8 02:54:20 10° NNE 02:57:03 17° ENE 02:59:46 10° ESE visible
30 Jun 4.1 04:29:32 10° NNW 04:33:07 32° W 04:35:04 21° SW visible
01 Jul 5.9 02:41:12 10° NNE 02:43:38 15° ENE 02:46:03 10° ESE visible
01 Jul 3.9 04:16:04 10° NNW 04:19:47 37° W 04:21:17 26° SW visible
02 Jul 6.0 02:28:06 10° NE 02:30:12 14° ENE 02:32:17 10° E visible
02 Jul 3.7 04:02:37 10° NNW 04:06:25 42° W 04:07:31 34° SW visible
03 Jul 6.0 02:15:07 10° NE 02:16:46 12° ENE 02:18:24 10° E visible
03 Jul 3.6 03:49:12 10° NNW 03:53:03 49° W 03:53:48 42° SW visible
04 Jul 6.1 02:02:22 10° NE 02:03:19 11° ENE 02:04:16 10° E visible
04 Jul 3.3 03:35:47 10° NNW 03:39:42 56° W 03:40:08 53° SW visible
05 Jul 3.2 03:22:22 10° NNW 03:26:20 65° W 03:26:30 64° WSW visible
06 Jul 3.2 03:08:58 10° NNW 03:12:53 75° W 03:12:53 75° W visible
07 Jul 3.3 02:55:35 10° N 02:59:18 76° NNW 02:59:18 76° NNW visible
08 Jul 3.5 02:42:12 10° N 02:45:45 68° N 02:45:45 68° N visible
